Regional Weather Roundup
Issued by NWS

Home | Current Version | Previous Version | Graphics & Text | Print | Product List | Glossary On
Versions: 1 2 3 4 5 6 7 8 9 10 11 12 13 14 15 16 17 18 19 20 21 22 23 24 25 26 27 28 29 30 31 32 33 34 35 36 37 38 39 40 41 42 43 44 45 46 47 48 49 50
000
ASUS43 KLMK 311110
RWRKY
KENTUCKY REGIONAL WEATHER ROUNDUP
NATIONAL WEATHER SERVICE LOUISVILLE KY
700 AM EDT FRI JUL 31 2015

NOTE "FAIR" INDICATES FEW OR NO CLOUDS BELOW 12,000 FEET
WITH NO SIGNIFICANT WEATHER AND/OR OBSTRUCTIONS TO VISIBILITY.

KYZ001>023-026-027-061>063-070>075-311200-
WESTERN AND SOUTH CENTRAL KENTUCKY

CITY           SKY/WX    TMP DP  RH WIND       PRES   REMARKS
PADUCAH        CLEAR     65  63  93 W3        30.09R
HENDERSON      CLEAR    N/A N/A N/A MISG        N/A
OWENSBORO      CLEAR     66  65  97 CALM      30.08R
HOPKINSVILLE   CLEAR     66  63  90 SW2       30.09R
BOWLING GREEN  CLEAR     67  62  84 CALM      30.09R
GLASGOW        CLEAR    N/A N/A N/A CALM      30.09R
$$

KYZ024-025-028>034-038-045-046-053-311200-
NORTH CENTRAL KENTUCKY

CITY           SKY/WX    TMP DP  RH WIND       PRES   REMARKS
LOUISVILLE/SDF PTCLDY    70  62  76 CALM      30.07R
LOUISVILLE/LOU CLEAR     66  62  87 CALM      30.07R
FORT KNOX      CLEAR     62  60  94 CALM      30.07R
$$

KYZ035>037-039>044-047>052-055>060-089>105-311200-
NORTHEAST KENTUCKY

CITY           SKY/WX    TMP DP  RH WIND       PRES   REMARKS
LEXINGTON      CLEAR     62  59  90 CALM      30.08R
COVINGTON      CLEAR     65  61  86 CALM      30.06R
FRANKFORT      CLEAR     61  58  90 CALM      30.07R
$$

KYZ054-064>069-076>088-106>120-311200-
SOUTHEAST KENTUCKY

CITY           SKY/WX    TMP DP  RH WIND       PRES   REMARKS
JACKSON        CLEAR     63  59  87 CALM      30.09R
LONDON         FAIR      61  57  87 CALM      30.10R
SOMERSET       CLEAR     59  59 100 CALM      30.10S
MIDDLESBORO    FOG       60  60 100 CALM      30.11R VSB 1/2
MONTICELLO     SUNNY     59  59 100 CALM      30.12S FOG
$$




USA.gov is the U.S. government's official web portal to all federal, state and local government web resources and services.